Dar Es Salaam, Tanzania

11:59 AM EAT on August 20, 2017 (GMT +0300)
Dar es Salaam International Airport

Weather History for HTDA - February, 2014

Change the Weather History Date:

Tuesday, February 11, 2014

  Actual Average Record
Temperature  
Mean Temperature 83 °F -  
Max Temperature 91 °F 85 °F 93 °F (1999)
Min Temperature 75 °F 76 °F 69 °F (2008)
Cooling Degree Days 18    
Growing Degree Days 33 (Base 50)    
Moisture  
Dew Point 77 °F    
Average Humidity 81    
Maximum Humidity 94    
Minimum Humidity 58    
Precipitation  
Precipitation 0.39 in 0.11 in - ()
Sea Level Pressure  
Sea Level Pressure 29.75 in    
Wind  
Wind Speed 8 mph ()    
Max Wind Speed 14 mph    
Max Gust Speed -    
Visibility 8.7 miles    
Events      
Averages and records for this station are not official NWS values.
T = Trace of Precipitation, MM = Missing Value Source: Averaged Metar Reports

Daily Weather History Graph

Daily Weather History Graph

Search for Another Location

Airport or City:

Trip Planner

Search our weather history database for the weather conditions in past years. The results will help you decide how hot, cold, wet, or windy it might be!

Date:

Astronomy

Feb. 11, 2014 Rise Set
Actual Time 6:27 AM EAT 6:47 PM EAT
Civil Twilight 6:05 AM EAT 7:09 PM EAT
Nautical Twilight 5:40 AM EAT 7:34 PM EAT
Astronomical Twilight 5:15 AM EAT 7:59 PM EAT
Moon 4:09 PM EAT (2/11) 3:26 AM EAT (2/11)
Length of Visible Light 13h 03m
Length of Day
12h 20m
Waxing Gibbous, 89% of the Moon is Illuminated
Feb 11
Waxing Gibbous
Feb 15
Full
Feb 22
Last Quarter
Mar 1
New
Mar 8
First Quarter

Hourly Weather History & Observations

Time (EAT) Temp. Heat Index Dew Point Humidity Pressure Visibility Wind Dir Wind Speed Gust Speed Precip Events Conditions
12:00 AM 78 °F - 77 °F 94% 29.77 in 19 mi North 6.9 mph - -   Scattered Clouds
12:00 AM 78.8 °F - 77.0 °F 94% 29.77 in 6.2 mi North 6.9 mph - N/A   Partly Cloudy
1:00 AM 78.8 °F - 77.0 °F 94% 29.74 in 6.2 mi North 11.5 mph - N/A   Scattered Clouds
2:00 AM 78.8 °F - 77.0 °F 94% 29.74 in 6.2 mi North 9.2 mph - N/A   Mostly Cloudy
3:00 AM 80.6 °F 87.1 °F 77.0 °F 89% 29.71 in 6.2 mi North 6.9 mph - N/A   Mostly Cloudy
4:00 AM 78.8 °F - 77.0 °F 94% 29.74 in 6.2 mi North 9.2 mph - N/A   Mostly Cloudy
5:00 AM 78.8 °F - 77.0 °F 94% 29.74 in 6.2 mi North 5.8 mph - N/A   Mostly Cloudy
6:00 AM 78.8 °F - 77.0 °F 94% 29.77 in 6.2 mi North 11.5 mph - N/A   Scattered Clouds
7:00 AM 78.8 °F - 77.0 °F 94% 29.80 in 6.2 mi NNE 4.6 mph - N/A   Mostly Cloudy
8:00 AM 82.4 °F 90.9 °F 77.0 °F 84% 29.80 in 5.0 mi North 5.8 mph - N/A   Haze
9:00 AM 84 °F - 78 °F 76% 29.81 in 19 mi NNE 5.8 mph - -   Mostly Cloudy
9:00 AM 84.2 °F 94.1 °F 77.0 °F 79% 29.80 in 6.2 mi NNE 5.8 mph - N/A   Partly Cloudy
10:00 AM 84.2 °F 94.1 °F 77.0 °F 79% 29.80 in 6.2 mi North 5.8 mph - N/A   Partly Cloudy
11:00 AM 86.0 °F 95.1 °F 75.2 °F 70% 29.80 in 6.2 mi NNW 5.8 mph - N/A   Partly Cloudy
12:00 PM 86 °F - 76 °F 65% 29.78 in 19 mi North 11.5 mph - -   Mostly Cloudy
12:00 PM 86.0 °F 95.1 °F 75.2 °F 70% 29.77 in 6.2 mi North 11.5 mph - N/A   Partly Cloudy
1:00 PM 87.8 °F 97.6 °F 75.2 °F 66% 29.74 in 6.2 mi NNW 11.5 mph - N/A   Partly Cloudy
2:00 PM 87.8 °F 97.6 °F 75.2 °F 66% 29.71 in 6.2 mi NNW 5.8 mph - N/A   Mostly Cloudy
3:00 PM 88 °F - 75 °F 58% 29.71 in 19 mi NNW 5.8 mph - -   Partly Cloudy
3:00 PM 87.8 °F 97.6 °F 75.2 °F 66% 29.68 in 6.2 mi NNW 5.8 mph - N/A   Mostly Cloudy
4:00 PM 87.8 °F 97.6 °F 75.2 °F 66% 29.68 in 6.2 mi NNE 11.5 mph - N/A   Mostly Cloudy
5:00 PM 84.2 °F 94.1 °F 77.0 °F 79% 29.68 in 6.2 mi NE 11.5 mph - N/A   Mostly Cloudy
6:00 PM 83 °F - 77 °F 78% 29.69 in 19 mi NE 11.5 mph - -   Partly Cloudy
6:00 PM 82.4 °F 90.9 °F 77.0 °F 84% 29.68 in 6.2 mi NE 11.5 mph - N/A   Mostly Cloudy
7:00 PM 82.4 °F 92.4 °F 78.8 °F 89% 29.71 in 6.2 mi NE 9.2 mph - N/A   Mostly Cloudy
8:00 PM 82.4 °F 90.9 °F 77.0 °F 84% 29.71 in 6.2 mi NNE 11.5 mph - N/A   Mostly Cloudy
9:00 PM 82 °F - 77 °F 80% 29.75 in 19 mi NNE 13.8 mph - -   Scattered Clouds
9:00 PM 82.4 °F 90.9 °F 77.0 °F 84% 29.74 in 6.2 mi NNE 13.8 mph - N/A   Scattered Clouds
10:00 PM 80.6 °F 87.1 °F 77.0 °F 89% 29.77 in 6.2 mi NE 13.8 mph - N/A   Mostly Cloudy
11:00 PM 80.6 °F 87.1 °F 77.0 °F 89% 29.77 in 6.2 mi NNE 10.4 mph - N/A   Mostly Cloudy